This is the latest recevied weather packets stored in our database for station/object KI4MRC. If no packets are shown the sender has not sent any weather packets the latest 10 day(s).
| Time | Temp. | Humidity | Pressure | Rain* | Wind** | Luminosity | Snow |
|---|---|---|---|---|---|---|---|
| 1777507618 | 25.56° C | 77% | 1012.5 hPa | 0 mm | - | 0 W/m² | - |
| 1777507315 | 25.56° C | 76% | 1012.5 hPa | 0 mm | - | 1 W/m² | - |
| 1777507012 | 25.56° C | 76% | 1012.4 hPa | 0 mm | - | 1 W/m² | - |
| 1777506710 | 25.56° C | 75% | 1012.3 hPa | 0 mm | - | 3 W/m² | - |
| 1777506406 | 26.11° C | 75% | 1012.3 hPa | 0 mm | - | 5 W/m² | - |
| 1777506102 | 26.11° C | 74% | 1012.5 hPa | 0 mm | - | 7 W/m² | - |
| 1777505798 | 26.11° C | 73% | 1012.2 hPa | 0 mm | - | 9 W/m² | - |
| 1777505495 | 26.11° C | 73% | 1012.1 hPa | 0 mm | - | 12 W/m² | - |
| 1777505191 | 26.67° C | 72% | 1012.4 hPa | 0 mm | - | 15 W/m² | - |
| 1777504888 | 26.67° C | 71% | 1012.1 hPa | 0 mm | - | 17 W/m² | - |
| 1777504585 | 26.67° C | 71% | 1012.2 hPa | 0 mm | - | 20 W/m² | - |
| 1777504280 | 26.67° C | 71% | 1012.2 hPa | 0 mm | - | 22 W/m² | - |
| 1777503976 | 26.67° C | 70% | 1012 hPa | 0 mm | - | 25 W/m² | - |
| 1777503674 | 27.22° C | 70% | 1012.2 hPa | 0 mm | - | 27 W/m² | - |
| 1777503370 | 27.22° C | 69% | 1012 hPa | 0 mm | - | 29 W/m² | - |
| 1777503066 | 27.22° C | 68% | 1011.9 hPa | 0 mm | - | 31 W/m² | - |
| 1777502764 | 27.22° C | 68% | 1011.9 hPa | 0 mm | - | 32 W/m² | - |
| 1777502460 | 27.78° C | 68% | 1012.2 hPa | 0 mm | - | 34 W/m² | - |
| 1777502157 | 27.78° C | 67% | 1012 hPa | 0 mm | - | 35 W/m² | - |
| 1777501855 | 27.78° C | 66% | 1012.3 hPa | 0 mm | - | 39 W/m² | - |
| 1777501552 | 27.78° C | 66% | 1012.3 hPa | 0 mm | - | 76 W/m² | - |
| 1777501249 | 27.78° C | 66% | 1012.4 hPa | 0 mm | - | 49 W/m² | - |
| 1777500947 | 27.78° C | 66% | 1012.4 hPa | 0 mm | - | 41 W/m² | - |
| 1777500644 | 27.78° C | 66% | 1012.4 hPa | 0 mm | - | 43 W/m² | - |
| 1777500341 | 28.33° C | 66% | 1012.3 hPa | 0 mm | - | 45 W/m² | - |
* Rain latest hour (hover to see other rain measurements)
** Current wind speed in m/s (hover to see current wind gust speed)